Location: Invercargill
(46.4000°S, 168.3500°E)
Time: 05:08:13
(UTC+13:00)

Cosmos 1933 Rocket - Pass Details

Date: 24 January 2019
Orbit: 607 x 630 km, 82.5° (Epoch: 16 October)

Event Time Altitude Azimuth Distance (km) Brightness Sun altitude
Rises 22:40:36 0° 192° (SSW) 2,930 8.0 -10.6°
Reaches altitude 10° 22:42:53 10° 195° (SSW) 2,012 7.2 -10.9°
Maximum altitude 22:47:17 64° 275° (W) 690 4.0 -11.5°
Drops below altitude 10° 22:51:37 10° 356° (N) 1,973 5.8 -12.0°
Enters shadow 22:52:14 - 357° (N) 2,219 6.0 -12.1°
